GACFB LGKR-LGKF

Flight info

Callsign GACFB
Flight time 0h 55m
Altitude 7000
Route KRK DCT PAK/N0109F080 DCT KFN
Aircraft C172/L-SDFG/C

Departure

Time 2026-04-24 15:44
Airport Corfu Ioannis Kapodistrias International Airport (LGKR)

Arrival

Time 2026-04-24 16:39
Airport Kefallinia Airport (LGKF)
Time Latitude Longitude Altitude Speed Heading
2026-04-24 15:43 39.45247 20.06382 5799 ft 128 kts 142°
2026-04-24 15:46 39.44785 20.06854 5799 ft 128 kts 140°
2026-04-24 15:47 39.44125 20.07629 5800 ft 128 kts 136°
2026-04-24 15:47 39.43493 20.08433 5800 ft 128 kts 135°
2026-04-24 15:47 39.42865 20.09252 5800 ft 128 kts 134°
2026-04-24 15:47 39.42307 20.10148 5799 ft 128 kts 120°
2026-04-24 15:48 39.41886 20.11165 5800 ft 128 kts 117°
2026-04-24 15:48 39.41478 20.12199 5800 ft 128 kts 117°
2026-04-24 15:48 39.41077 20.13221 5799 ft 128 kts 117°
2026-04-24 15:48 39.40673 20.14251 5799 ft 128 kts 116°
2026-04-24 15:49 39.40267 20.15286 5799 ft 128 kts 116°
2026-04-24 15:49 39.39862 20.16318 5800 ft 128 kts 116°
2026-04-24 15:49 39.39459 20.17346 5799 ft 128 kts 116°
2026-04-24 15:49 39.39058 20.18370 5799 ft 128 kts 116°
2026-04-24 15:50 39.38654 20.19400 5799 ft 128 kts 116°
2026-04-24 15:50 39.38248 20.20437 5799 ft 128 kts 116°
2026-04-24 15:50 39.37846 20.21465 5799 ft 128 kts 116°
2026-04-24 15:50 39.37442 20.22498 5799 ft 128 kts 116°
2026-04-24 15:51 39.37040 20.23524 5799 ft 128 kts 116°
2026-04-24 15:51 39.36637 20.24555 5799 ft 128 kts 116°
2026-04-24 15:51 39.36236 20.25583 5799 ft 128 kts 116°
2026-04-24 15:51 39.35835 20.26610 5799 ft 128 kts 116°
2026-04-24 15:52 39.35432 20.27642 5799 ft 128 kts 116°
2026-04-24 15:52 39.35032 20.28665 5799 ft 128 kts 116°
2026-04-24 15:52 39.34627 20.29704 5799 ft 128 kts 116°
2026-04-24 15:52 39.34228 20.30727 5799 ft 128 kts 116°
2026-04-24 15:53 39.33810 20.31752 5799 ft 128 kts 120°
2026-04-24 15:53 39.33340 20.32731 5799 ft 128 kts 123°
2026-04-24 15:53 39.32857 20.33702 5800 ft 128 kts 121°
2026-04-24 15:53 39.32391 20.34673 5799 ft 128 kts 121°
2026-04-24 15:54 39.31921 20.35656 5799 ft 128 kts 121°
2026-04-24 15:54 39.31447 20.36646 5799 ft 128 kts 121°
2026-04-24 15:54 39.30981 20.37620 5799 ft 128 kts 121°
2026-04-24 15:54 39.30513 20.38601 5799 ft 128 kts 121°
2026-04-24 15:55 39.30047 20.39576 5799 ft 128 kts 121°
2026-04-24 15:55 39.29577 20.40560 5799 ft 128 kts 121°
2026-04-24 15:55 39.29107 20.41544 5799 ft 128 kts 121°
2026-04-24 15:55 39.28637 20.42529 5799 ft 128 kts 121°
2026-04-24 15:56 39.28169 20.43509 5799 ft 128 kts 121°
2026-04-24 15:56 39.27703 20.44486 5799 ft 128 kts 121°
2026-04-24 15:56 39.27233 20.45471 5799 ft 128 kts 121°
2026-04-24 15:56 39.26765 20.46452 5799 ft 128 kts 121°
2026-04-24 15:57 39.26299 20.47430 5799 ft 128 kts 121°
2026-04-24 15:57 39.25833 20.48409 5799 ft 128 kts 121°
2026-04-24 15:57 39.25523 20.49061 5799 ft 128 kts 121°
2026-04-24 15:57 39.24901 20.50367 5800 ft 128 kts 121°
2026-04-24 15:58 39.24430 20.51354 5800 ft 128 kts 121°
2026-04-24 15:58 39.23964 20.52335 5799 ft 128 kts 121°
2026-04-24 15:58 39.23498 20.53315 5799 ft 128 kts 121°
2026-04-24 15:58 39.23034 20.54290 5799 ft 128 kts 121°
2026-04-24 15:59 39.22565 20.55278 5799 ft 128 kts 121°
2026-04-24 15:59 39.21980 20.56128 5794 ft 128 kts 150°
2026-04-24 15:59 39.21161 20.56576 5799 ft 128 kts 158°
2026-04-24 15:59 39.20341 20.57031 5800 ft 128 kts 155°
2026-04-24 16:00 39.19534 20.57502 5800 ft 128 kts 155°
2026-04-24 16:00 39.18721 20.57977 5799 ft 128 kts 155°
2026-04-24 16:00 39.17911 20.58451 5799 ft 128 kts 155°
2026-04-24 16:00 39.17099 20.58926 5799 ft 128 kts 155°
2026-04-24 16:01 39.16283 20.59404 5799 ft 128 kts 155°
2026-04-24 16:01 39.15470 20.59880 5799 ft 128 kts 155°
2026-04-24 16:01 39.14664 20.60353 5799 ft 128 kts 155°
2026-04-24 16:01 39.13842 20.60814 5799 ft 128 kts 158°
2026-04-24 16:02 39.13004 20.61221 5799 ft 128 kts 159°
2026-04-24 16:02 39.12168 20.61624 5799 ft 128 kts 159°
2026-04-24 16:02 39.11332 20.62026 5799 ft 128 kts 159°
2026-04-24 16:02 39.10504 20.62424 5799 ft 128 kts 159°
2026-04-24 16:03 39.09669 20.62826 5799 ft 128 kts 159°
2026-04-24 16:03 39.08830 20.63231 5799 ft 128 kts 159°
2026-04-24 16:03 39.07991 20.63635 5799 ft 128 kts 159°
2026-04-24 16:03 39.07165 20.64034 5799 ft 128 kts 159°
2026-04-24 16:04 39.06324 20.64439 5799 ft 128 kts 159°
2026-04-24 16:04 39.05484 20.64818 5799 ft 128 kts 161°
2026-04-24 16:04 39.04641 20.65183 5799 ft 128 kts 161°
2026-04-24 16:04 39.03794 20.65550 5799 ft 128 kts 161°
2026-04-24 16:05 39.02107 20.66280 5799 ft 128 kts 161°
2026-04-24 16:05 39.01262 20.66645 5799 ft 128 kts 161°
2026-04-24 16:06 38.99570 20.67379 5799 ft 128 kts 161°
2026-04-24 16:06 38.98723 20.67746 5800 ft 128 kts 161°
2026-04-24 16:06 38.97037 20.68498 5800 ft 128 kts 159°
2026-04-24 16:07 38.96202 20.68901 5800 ft 128 kts 159°
2026-04-24 16:07 38.95372 20.69304 5799 ft 128 kts 159°
2026-04-24 16:07 38.93704 20.70114 5799 ft 127 kts 159°
2026-04-24 16:08 38.92876 20.70509 5799 ft 127 kts 161°
2026-04-24 16:08 38.91198 20.71174 5799 ft 126 kts 163°
2026-04-24 16:09 38.89495 20.71735 5799 ft 126 kts 175°
2026-04-24 16:09 38.88627 20.71907 5800 ft 126 kts 169°
2026-04-24 16:09 38.87762 20.72096 5800 ft 126 kts 171°
2026-04-24 16:09 38.86896 20.72222 5801 ft 126 kts 176°
2026-04-24 16:10 38.84321 20.71680 5782 ft 127 kts 205°
2026-04-24 16:11 38.82560 20.71688 5583 ft 127 kts 172°
2026-04-24 16:11 38.81690 20.71840 5608 ft 125 kts 172°
2026-04-24 16:11 38.80834 20.71990 5602 ft 126 kts 172°
2026-04-24 16:12 38.79091 20.72298 5614 ft 125 kts 172°
2026-04-24 16:12 38.78227 20.72451 5615 ft 126 kts 172°
2026-04-24 16:12 38.76502 20.72757 5624 ft 126 kts 172°
2026-04-24 16:13 38.75630 20.72912 5628 ft 126 kts 172°
2026-04-24 16:13 38.73906 20.73218 5631 ft 126 kts 172°
2026-04-24 16:14 38.72173 20.73528 5638 ft 126 kts 172°
2026-04-24 16:14 38.71299 20.73684 5642 ft 126 kts 172°
2026-04-24 16:14 38.69567 20.73994 5638 ft 126 kts 172°
2026-04-24 16:15 38.68981 20.74100 5641 ft 126 kts 172°
2026-04-24 16:15 38.66960 20.74405 5643 ft 126 kts 174°
2026-04-24 16:16 38.65210 20.74612 5634 ft 127 kts 182°
2026-04-24 16:16 38.64334 20.74408 5578 ft 128 kts 196°
2026-04-24 16:17 38.61957 20.73017 5583 ft 127 kts 217°
2026-04-24 16:17 38.60575 20.71646 5605 ft 126 kts 218°
2026-04-24 16:18 38.59197 20.70265 5613 ft 125 kts 218°
2026-04-24 16:18 38.57829 20.68881 5617 ft 126 kts 220°
2026-04-24 16:18 38.57153 20.68157 5621 ft 126 kts 220°
2026-04-24 16:19 38.55822 20.66727 5629 ft 126 kts 220°
2026-04-24 16:19 38.55143 20.65999 5633 ft 126 kts 220°
2026-04-24 16:20 38.53809 20.64564 5640 ft 126 kts 220°
2026-04-24 16:20 38.52489 20.63102 5648 ft 126 kts 221°
2026-04-24 16:20 38.51830 20.62371 5652 ft 126 kts 221°
2026-04-24 16:21 38.50510 20.60908 5660 ft 126 kts 221°
2026-04-24 16:21 38.49849 20.60176 5664 ft 126 kts 221°
2026-04-24 16:21 38.49187 20.59443 5666 ft 126 kts 221°
2026-04-24 16:22 38.48524 20.58710 5671 ft 126 kts 221°
2026-04-24 16:22 38.47201 20.57247 5678 ft 126 kts 221°
2026-04-24 16:22 38.46540 20.56518 5682 ft 126 kts 221°
2026-04-24 16:23 38.45882 20.55791 5686 ft 126 kts 221°
2026-04-24 16:23 38.45213 20.55053 5690 ft 126 kts 221°
2026-04-24 16:23 38.44552 20.54324 5694 ft 126 kts 221°
2026-04-24 16:24 38.43271 20.52819 5701 ft 126 kts 223°
2026-04-24 16:24 38.42624 20.52054 5644 ft 128 kts 223°
2026-04-24 16:24 38.41968 20.51278 5544 ft 128 kts 223°
2026-04-24 16:24 38.41314 20.50506 5444 ft 128 kts 223°
2026-04-24 16:25 38.40657 20.49729 5343 ft 127 kts 223°
2026-04-24 16:25 38.40009 20.48965 5243 ft 127 kts 223°
2026-04-24 16:25 38.39359 20.48198 5143 ft 127 kts 223°
2026-04-24 16:26 38.38067 20.46675 5004 ft 125 kts 223°
2026-04-24 16:26 38.37426 20.45921 5000 ft 126 kts 223°
2026-04-24 16:26 38.36137 20.44407 5000 ft 126 kts 223°
2026-04-24 16:27 38.35493 20.43649 4907 ft 128 kts 223°
2026-04-24 16:27 38.34841 20.42882 4732 ft 128 kts 223°
2026-04-24 16:27 38.34190 20.42116 4556 ft 127 kts 223°
2026-04-24 16:27 38.33548 20.41362 4381 ft 124 kts 223°
2026-04-24 16:28 38.32938 20.40646 4202 ft 116 kts 223°
2026-04-24 16:28 38.32343 20.39947 4023 ft 114 kts 223°
2026-04-24 16:28 38.31177 20.38581 3602 ft 114 kts 223°
2026-04-24 16:29 38.30597 20.37901 3377 ft 113 kts 223°
2026-04-24 16:29 38.30021 20.37227 3153 ft 113 kts 223°
2026-04-24 16:29 38.28670 20.36438 2693 ft 112 kts 171°
2026-04-24 16:30 38.27269 20.37257 2241 ft 111 kts 146°
2026-04-24 16:30 38.26633 20.37814 2016 ft 111 kts 149°
2026-04-24 16:30 38.26001 20.38357 1848 ft 107 kts 144°
2026-04-24 16:31 38.25393 20.38844 1975 ft 105 kts 150°
2026-04-24 16:31 38.24745 20.39347 1806 ft 109 kts 148°
2026-04-24 16:31 38.24106 20.39852 1631 ft 108 kts 148°
2026-04-24 16:31 38.23474 20.40351 1455 ft 106 kts 148°
2026-04-24 16:32 38.23060 20.40679 1347 ft 105 kts 148°
2026-04-24 16:32 38.22242 20.41327 1298 ft 96 kts 149°
2026-04-24 16:32 38.21723 20.41729 1248 ft 79 kts 151°
2026-04-24 16:32 38.21283 20.42018 1155 ft 67 kts 156°
2026-04-24 16:33 38.20878 20.42296 1019 ft 66 kts 148°
2026-04-24 16:33 38.20464 20.42596 908 ft 71 kts 154°
2026-04-24 16:33 38.20054 20.42918 865 ft 65 kts 137°
2026-04-24 16:33 38.19665 20.43253 816 ft 68 kts 147°
2026-04-24 16:34 38.19264 20.43627 838 ft 76 kts 142°
2026-04-24 16:34 38.18832 20.43945 914 ft 75 kts 155°
2026-04-24 16:34 38.18383 20.44267 958 ft 69 kts 143°
2026-04-24 16:34 38.17995 20.44658 929 ft 71 kts 143°
2026-04-24 16:35 38.17600 20.45053 894 ft 74 kts 139°
2026-04-24 16:35 38.17232 20.45481 840 ft 67 kts 141°
2026-04-24 16:35 38.16878 20.45822 766 ft 60 kts 139°
2026-04-24 16:35 38.16575 20.46149 698 ft 57 kts 143°
2026-04-24 16:36 38.16267 20.46461 609 ft 56 kts 140°
2026-04-24 16:36 38.15931 20.46721 524 ft 55 kts 151°
2026-04-24 16:36 38.15620 20.46984 471 ft 50 kts 147°
2026-04-24 16:36 38.15316 20.47234 382 ft 51 kts 147°
2026-04-24 16:37 38.15018 20.47491 324 ft 50 kts 146°
2026-04-24 16:37 38.14724 20.47756 269 ft 51 kts 144°
2026-04-24 16:37 38.14514 20.47904 229 ft 51 kts 154°
2026-04-24 16:37 38.14132 20.48253 247 ft 50 kts 146°
2026-04-24 16:38 38.13836 20.48497 272 ft 50 kts 145°
2026-04-24 16:38 38.13545 20.48741 260 ft 51 kts 149°
2026-04-24 16:38 38.13251 20.48988 192 ft 50 kts 146°
2026-04-24 16:38 38.12959 20.49229 86 ft 51 kts 149°
2026-04-24 16:39 38.12688 20.49466 31 ft 36 kts 146°
2026-04-24 16:39 38.12543 20.49584 36 ft 35 kts 155°
2026-04-24 16:39 38.12293 20.49797 44 ft 49 kts 144°
2026-04-24 16:39 38.12025 20.50033 49 ft 39 kts 144°
2026-04-24 16:40 38.11891 20.50186 53 ft 12 kts 95°
2026-04-24 16:40 38.11934 20.50309 59 ft 12 kts 54°
2026-04-24 16:40 38.11945 20.50328 60 ft 7 kts 53°
2026-04-24 16:40 38.11953 20.50341 61 ft 0 kts 51°